Theta_e
302 302 301 302 302 302 302 303 303 304 304 306 309 312 306 305 303 315 317 320 316 307 299 301 297 296 299 301 300 299 297 296 300 297 299 297 299 298 298 297 296 297 295 295 295 296 293 295 293 296 298 301 301 303 305 305 304 304 302 300 301 304 295 293 294 297 300 302 304 304 304 303 300 301 303 301 297 298 296 296 298 294 294 291 291 287 293
302 301 301 302 302 302 302 303 303 304 304 304 306 306 306 305 306 307 315 320 315 303 292 291 293 297 299 298 298 300 298 299 297 296 298 297 298 296 297 297 298 296 299 297 294 297 289 296 295 295 299 298 304 305 305 305 303 303 302 299 305 294 297 294 290 290 293 296 299 299 302 301 299 299 302 301 300 302 301 299 299 291 293 293 290 284 290
301 301 301 302 302 302 302 303 304 304 305 305 306 305 308 307 309 308 309 315 312 300 301 297 294 296 296 296 295 296 297 298 299 299 297 299 298 298 296 298 299 297 298 296 297 298 295 293 297 297 299 300 304 304 305 306 307 307 307 307 308 297 296 293 287 284 283 283 284 288 291 295 298 300 300 301 300 302 298 291 294 288 293 295 291 289 299
301 301 301 301 302 302 302 303 304 304 304 303 304 306 307 304 293 303 305 306 305 304 305 302 299 295 296 292 296 296 295 298 299 298 298 299 299 298 298 299 298 295 296 295 295 294 298 294 295 297 296 298 301 304 306 304 304 306 307 306 306 298 300 298 295 291 290 292 294 300 300 299 294 297 300 299 300 300 302 298 292 289 292 292 295 295 297
302 301 301 301 301 302 303 303 304 304 304 304 306 308 307 305 297 296 293 302 302 300 301 299 299 295 299 291 296 294 295 297 297 299 296 298 298 298 298 297 295 295 295 294 294 295 295 297 296 297 297 299 303 303 304 304 304 306 306 306 303 300 293 296 297 297 297 297 297 299 299 296 297 298 298 299 299 300 301 293 291 299 295 288 294 300 298
301 301 301 301 302 302 303 303 304 304 303 304 307 304 306 296 301 302 307 297 293 294 295 300 298 299 299 295 298 295 294 295 293 297 299 299 299 295 297 297 296 296 295 295 291 295 296 297 292 298 298 297 298 299 304 302 302 304 304 307 304 301 292 296 299 296 300 300 299 299 299 297 299 297 299 300 299 298 298 298 301 300 292 289 296 299 298
301 300 301 301 302 302 303 303 304 304 303 303 307 303 306 306 304 304 307 296 298 300 300 300 299 297 298 296 297 294 294 294 296 296 297 296 297 298 289 293 295 296 297 296 294 296 290 288 298 297 297 297 298 296 299 302 304 302 303 302 303 298 295 298 297 295 296 299 299 299 297 298 298 298 300 302 302 302 302 303 301 301 299 301 300 300 297
301 300 301 301 302 302 303 303 304 304 302 304 307 307 302 300 299 298 302 303 300 301 300 299 298 296 296 293 296 295 295 294 296 297 296 291 295 299 295 294 296 296 296 296 295 296 297 296 291 300 298 297 300 297 296 295 301 302 298 299 302 297 291 295 297 292 294 298 299 301 297 297 298 299 302 302 303 302 304 301 301 303 302 303 300 296 293
300 300 301 301 302 302 303 303 304 304 302 307 306 308 308 307 307 307 297 295 298 298 298 296 296 294 295 294 296 296 295 295 297 296 298 297 294 296 294 296 296 297 296 296 296 297 297 297 298 299 298 293 299 295 299 299 298 300 301 300 296 297 291 296 295 289 290 297 298 298 300 299 295 296 297 298 298 297 299 297 302 299 296 298 299 295 293
300 300 300 301 302 302 303 303 304 304 302 307 310 304 311 309 310 308 303 294 294 296 298 298 295 291 296 297 296 295 296 296 297 292 298 298 298 297 296 298 297 295 295 295 297 298 298 299 299 300 300 301 300 300 299 299 299 299 301 300 297 298 292 290 290 288 287 296 297 297 294 292 290 288 291 295 299 300 300 301 302 302 301 296 293 296 298
299 300 300 301 302 302 303 303 304 304 305 306 308 307 308 305 302 303 302 293 292 297 297 295 296 297 298 297 296 297 297 296 297 293 291 298 298 299 298 297 296 294 294 298 300 301 301 301 302 302 300 300 300 300 301 300 301 300 301 301 299 299 298 292 295 286 288 294 295 295 290 284 283 290 295 295 294 297 297 295 298 301 302 300 303 299 299
300 300 301 301 302 302 303 303 304 304 304 308 310 307 312 314 309 305 297 292 291 298 296 293 296 297 297 297 296 296 296 297 297 298 295 298 299 300 298 298 298 290 299 302 301 301 302 302 301 301 300 300 300 301 301 302 301 302 302 300 298 297 296 293 296 288 287 290 290 287 281 283 288 294 294 295 296 297 297 297 297 298 301 301 299 299 299
300 300 301 301 302 302 303 303 304 305 305 309 310 307 316 316 310 303 300 297 292 293 293 295 296 296 296 296 295 296 297 297 298 299 298 297 298 299 300 298 296 297 301 299 300 299 296 295 296 297 297 299 300 301 301 301 301 302 302 302 300 293 293 294 290 289 288 287 286 280 281 287 291 293 293 294 296 295 297 294 296 297 299 300 296 295 295
300 300 301 302 302 303 303 304 304 305 305 307 309 311 314 315 307 304 301 295 293 298 298 294 294 294 295 295 295 295 296 296 298 299 297 300 298 298 300 300 300 301 301 301 298 297 294 296 290 292 292 294 294 294 297 299 300 300 300 300 300 298 297 294 289 292 285 286 286 283 286 287 288 288 288 289 286 288 289 286 291 295 298 298 295 294 294
300 300 301 302 302 303 304 304 305 305 305 305 310 312 313 314 312 307 306 301 293 295 297 291 296 297 295 295 294 293 295 296 295 295 298 301 299 299 300 300 302 300 302 298 296 297 292 291 287 285 285 285 283 285 293 290 296 298 299 299 299 299 293 296 290 287 290 287 283 283 284 281 283 287 291 294 294 293 293 291 289 296 297 299 296 293 293
300 301 301 302 303 303 304 305 305 305 305 305 308 312 313 315 313 310 307 302 297 289 295 299 299 295 295 294 295 294 293 292 294 295 296 297 296 298 299 300 302 302 300 297 297 294 291 285 284 285 284 285 289 286 286 292 292 297 299 298 297 297 297 295 291 288 288 286 283 283 281 281 287 288 291 292 294 294 295 290 286 293 296 297 296 294 294
300 301 301 302 303 304 304 305 305 306 306 305 310 312 310 316 311 309 305 302 299 291 297 298 299 298 296 295 298 296 296 293 294 290 290 293 295 294 297 300 304 302 299 298 298 293 290 287 290 289 286 287 285 284 288 287 287 289 296 297 294 290 292 291 288 286 288 287 284 280 283 281 287 291 292 293 294 295 291 283 284 292 296 297 295 294 294
300 301 301 302 303 304 304 305 305 306 306 306 308 312 309 316 314 313 307 301 294 294 297 300 299 297 296 296 294 296 299 298 297 295 293 294 294 295 296 298 298 301 302 294 295 291 289 288 285 283 283 289 290 289 282 287 285 287 286 290 289 288 287 289 286 287 287 285 283 285 284 288 291 292 294 295 296 291 283 281 284 294 295 296 295 295 296
301 301 302 302 303 304 305 305 306 306 307 306 311 312 307 312 315 311 311 300 298 291 298 300 301 298 300 300 298 298 297 299 298 293 292 292 295 296 297 298 299 294 298 294 294 288 288 288 292 289 286 287 293 286 291 287 284 287 290 287 288 287 288 288 288 286 286 287 285 284 283 287 292 293 295 295 290 283 281 286 294 296 295 297 297 295 295
300 301 302 303 304 304 305 306 306 307 307 306 308 309 309 315 312 314 308 299 299 296 298 299 299 297 300 299 297 297 298 299 298 296 293 290 299 298 295 292 298 298 296 296 288 292 288 287 289 293 288 289 290 293 288 288 293 290 289 289 286 283 284 286 285 286 287 287 285 284 279 286 292 292 294 292 286 284 288 291 296 298 297 297 296 294 293
300 301 302 303 304 305 306 306 306 306 307 306 305 307 303 312 315 321 320 305 299 293 294 301 301 299 299 299 300 299 297 295 296 295 297 297 300 298 288 287 293 295 291 291 286 289 290 288 290 289 291 292 290 292 286 287 289 294 293 290 287 289 285 286 286 286 283 281 279 278 284 289 292 291 284 288 290 293 294 294 292 296 298 297 295 293 293
301 301 302 303 304 305 306 306 306 306 306 306 303 312 303 308 313 313 311 308 300 296 299 302 302 301 302 302 302 303 300 299 300 302 300 297 301 298 297 298 297 298 299 299 292 292 296 294 295 291 289 289 294 288 289 286 283 290 295 294 283 290 287 288 283 286 284 281 283 287 290 291 292 292 291 292 294 295 294 293 292 293 295 297 294 293 294
301 301 302 303 304 305 305 306 306 306 305 306 309 311 302 304 307 312 310 301 302 302 304 303 303 302 302 302 303 304 304 304 305 304 304 298 295 299 299 297 298 302 303 302 295 295 296 293 288 294 291 291 288 287 289 288 286 289 286 292 290 294 293 294 290 286 290 290 291 292 291 291 291 293 293 292 293 294 294 292 291 294 296 297 294 294 294
301 301 302 303 304 304 305 306 306 306 305 306 309 308 305 307 307 307 304 304 300 296 299 303 298 293 297 297 300 303 303 303 303 306 308 307 298 294 300 301 303 304 301 303 305 297 296 295 295 296 289 293 294 287 285 284 286 291 289 288 291 294 295 293 288 291 287 280 289 289 289 291 291 291 292 293 293 292 293 292 293 294 296 295 295 295 294
301 301 302 302 303 304 305 306 305 305 306 305 311 309 309 309 312 309 303 293 295 294 289 292 295 299 300 302 303 301 302 305 306 305 306 308 304 298 295 301 305 303 299 304 306 300 296 292 293 291 287 293 295 287 292 288 287 294 287 289 290 289 296 290 290 288 284 283 288 290 292 293 293 293 291 291 291 292 292 293 293 294 296 296 295 295 294
300 301 302 302 303 304 305 305 305 305 305 305 309 307 305 307 313 312 308 306 303 298 290 289 295 302 302 300 298 300 304 304 303 303 305 305 306 307 305 305 304 307 305 305 304 297 294 293 293 293 290 290 299 290 290 293 292 294 290 288 294 294 295 287 291 287 288 290 290 291 292 292 292 294 294 294 293 292 293 293 293 294 294 294 295 295 294
300 301 301 302 302 303 304 305 305 305 305 305 313 310 307 308 312 311 308 305 298 291 293 290 295 298 300 299 301 303 303 303 304 303 303 303 304 307 307 305 303 302 302 300 301 296 296 294 293 291 294 292 296 294 295 291 292 289 289 293 296 293 289 292 290 285 285 285 288 292 286 285 290 292 294 294 295 294 293 294 294 294 294 295 294 294 295
300 301 301 302 302 303 304 304 305 304 305 305 312 311 312 309 311 312 314 310 303 293 292 292 293 297 303 298 301 303 303 304 303 302 302 302 304 305 305 304 303 301 300 297 292 293 292 291 291 293 293 296 292 290 295 295 295 291 290 292 295 292 293 292 287 286 285 291 293 294 293 292 293 294 295 296 296 294 293 292 292 293 295 295 295 294 294
300 300 301 302 302 303 304 304 305 305 305 306 311 307 307 310 312 314 312 317 314 301 296 297 300 299 292 296 302 301 303 305 304 303 303 302 303 304 303 302 301 300 300 297 294 294 292 292 294 293 292 297 295 289 292 287 287 285 289 294 295 296 297 295 294 293 293 294 294 295 294 292 294 296 295 295 296 296 295 295 295 295 295 296 295 295 294
300 300 301 302 302 303 304 304 305 305 305 311 308 304 299 301 308 311 312 312 313 305 295 292 289 291 302 301 299 300 301 303 303 304 303 302 302 302 302 302 301 301 300 295 293 290 292 293 293 298 299 302 293 290 288 288 287 288 294 295 296 296 297 297 297 294 292 295 295 296 295 295 296 297 296 295 295 295 295 294 295 295 295 296 295 295 297
300 300 301 301 302 303 304 304 305 304 304 311 306 296 293 290 301 311 309 313 313 307 296 295 291 296 295 300 301 298 300 301 302 301 302 302 302 302 302 302 301 300 294 295 294 292 293 290 291 294 298 298 294 290 288 287 286 288 293 295 295 296 295 295 297 297 297 296 297 297 297 296 297 296 295 296 296 296 295 295 295 295 295 295 295 295 295
300 300 301 301 302 303 304 304 304 304 312 307 303 300 303 306 309 310 309 311 312 304 295 291 290 291 290 295 299 301 300 300 301 302 301 303 300 302 301 301 297 300 296 293 294 293 292 293 292 294 294 297 294 290 290 288 286 287 293 294 296 296 297 296 296 296 297 297 296 294 294 294 296 294 293 296 296 297 296 296 297 297 296 296 296 296 296
299 300 301 301 302 303 304 304 303 305 307 305 302 303 304 303 303 307 309 315 310 301 302 293 289 290 289 293 299 301 302 301 299 301 298 303 299 301 297 301 300 299 300 295 291 289 294 292 292 291 295 299 291 290 289 286 288 293 294 294 295 296 296 296 296 297 296 296 296 292 290 292 294 296 296 297 296 296 296 296 296 296 296 295 295 295 295
299 300 300 301 302 303 304 303 302 299 303 310 307 305 310 303 309 305 313 316 306 303 299 292 288 289 289 299 294 298 302 296 295 297 292 301 302 300 295 297 298 292 297 293 293 293 293 292 290 290 294 291 292 289 285 288 292 293 294 294 295 295 295 295 295 295 295 296 296 296 296 296 297 297 296 295 295 296 297 297 296 295 295 295 294 294 295
299 300 301 301 303 303 303 303 310 310 305 304 305 309 310 303 302 304 313 310 293 292 292 292 293 288 289 291 289 294 301 299 293 296 292 296 303 297 297 291 293 291 291 301 293 292 290 291 296 289 287 292 288 285 287 290 292 293 294 294 294 294 294 293 293 295 295 296 296 296 296 296 295 294 294 295 295 295 295 295 296 295 294 294 294 294 294
299 300 301 302 302 303 308 307 308 303 302 302 304 307 302 305 307 318 318 313 305 295 291 291 292 290 291 286 286 290 300 296 298 298 296 295 296 299 297 293 288 292 299 294 289 293 289 295 293 286 291 287 285 287 289 293 292 293 294 293 295 295 295 294 294 295 295 296 296 297 296 295 294 294 294 294 295 295 295 294 294 295 294 294 294 294 295
299 300 301 302 305 307 304 299 303 307 307 309 308 303 301 305 313 314 311 307 307 307 298 292 291 292 295 290 291 292 298 289 297 294 295 292 290 293 294 290 288 291 291 290 290 288 292 299 291 287 287 285 287 293 294 294 293 293 293 295 296 296 296 296 296 296 295 295 295 295 295 294 293 294 294 294 295 295 294 294 294 294 294 294 294 294 295
300 300 304 304 305 295 293 296 304 308 305 303 304 305 303 305 295 296 297 295 299 301 296 299 292 296 297 293 288 297 298 292 298 290 291 293 290 290 292 290 289 290 285 287 290 298 293 291 288 286 286 292 294 294 295 295 296 296 296 296 296 296 296 296 296 295 293 292 291 292 293 293 293 294 294 294 294 294 294 295 296 296 296 295 295 296 295
300 304 306 305 300 294 295 302 309 301 310 306 307 298 294 298 294 290 291 294 293 293 296 296 291 297 296 293 293 300 299 291 291 292 287 294 290 285 291 285 288 290 286 286 288 298 286 286 287 287 285 289 290 293 295 296 296 296 297 297 297 297 297 297 297 295 294 293 294 294 294 293 292 293 294 294 295 295 295 296 296 296 296 296 296 296 296
304 303 298 298 297 299 303 305 301 305 306 298 298 296 290 295 291 287 294 290 290 292 294 291 297 297 298 293 292 292 301 298 289 289 290 291 298 288 290 290 289 288 282 284 286 296 287 283 286 286 284 288 289 294 295 295 294 295 296 296 297 297 297 297 298 298 297 297 297 296 296 296 296 295 295 295 295 295 295 296 296 297 297 296 295 296 296
304 303 300 296 301 302 302 304 307 306 298 293 292 292 291 288 293 293 290 288 288 289 296 296 296 296 298 298 296 291 297 303 299 299 293 288 295 295 288 285 290 286 284 284 288 291 288 286 286 285 286 289 291 294 295 295 295 295 296 297 297 297 297 297 297 297 296 296 296 296 296 296 296 296 296 296 296 295 296 296 296 296 297 297 296 296 297
305 305 306 307 305 305 305 302 299 293 293 294 288 286 289 289 291 291 291 287 287 291 294 296 290 294 293 297 297 297 294 300 297 293 291 286 290 290 287 288 288 285 282 288 290 289 287 282 284 285 288 291 294 294 295 294 294 295 296 297 297 297 297 297 296 296 297 296 296 296 296 297 297 296 296 296 296 296 296 296 296 296 296 297 296 297 296
298 299 306 301 299 297 297 291 293 292 285 285 285 283 287 285 287 287 287 292 294 293 293 302 299 301 300 301 297 300 294 301 294 292 290 287 291 291 287 285 285 282 286 290 289 285 283 282 283 287 290 292 294 294 295 295 296 296 296 297 298 298 297 297 296 296 297 297 296 297 296 297 297 297 297 297 297 297 296 296 296 297 297 297 297 296 296
306 304 299 295 292 292 293 281 292 288 285 287 284 279 283 283 286 289 287 289 291 292 297 294 294 294 289 296 294 291 293 295 295 293 291 291 289 286 285 282 284 289 292 287 286 282 284 285 288 289 292 293 295 295 295 295 296 296 296 296 297 297 297 297 297 296 296 297 297 297 297 297 296 297 297 297 296 296 296 296 297 297 296 296 296 296 297
296 294 293 290 288 290 289 281 290 286 280 283 286 285 286 283 287 289 288 293 296 294 296 298 296 296 292 296 296 294 294 290 294 290 285 289 286 287 284 284 288 288 285 282 284 285 285 284 290 292 292 292 294 295 296 296 296 295 296 296 296 296 296 296 296 296 296 296 296 296 296 296 296 296 296 297 297 297 297 297 297 296 297 296 296 296 296
292 290 289 284 279 286 287 283 285 282 287 288 287 290 289 291 292 292 298 297 296 296 295 296 297 296 292 295 292 290 293 292 289 289 289 289 284 283 288 291 289 284 283 284 281 282 283 287 290 291 293 294 294 295 295 296 296 297 296 295 295 296 296 296 296 296 296 296 296 296 296 296 296 296 296 297 297 297 297 297 297 297 297 296 296 296 296
292 292 292 289 284 286 290 284 284 287 290 291 293 293 294 295 296 297 298 299 298 298 298 299 298 297 293 292 292 292 293 292 287 289 291 285 284 286 290 286 280 283 279 279 281 283 286 290 292 293 294 294 295 295 296 296 296 296 296 296 296 296 296 296 296 296 296 296 296 296 296 296 296 296 296 296 296 297 296 297 298 298 297 296 296 296 297
288 292 292 283 282 286 284 287 294 294 295 295 295 297 297 298 296 295 298 300 300 299 298 297 294 295 293 296 296 290 290 291 287 287 290 287 288 285 283 282 282 284 284 282 283 288 289 292 293 293 294 295 296 295 295 295 296 296 296 296 296 296 296 296 296 296 297 296 296 296 296 296 297 296 296 296 296 297 297 298 298 298 298 297 297 297 296
294 290 287 286 289 288 287 291 292 290 292 295 295 295 294 295 294 296 299 302 299 298 299 297 293 293 289 292 291 289 286 289 284 284 288 286 282 278 279 277 280 280 284 287 288 289 290 293 294 295 294 295 296 296 296 296 296 296 296 296 295 296 296 296 297 297 297 297 296 296 296 296 297 296 296 297 296 297 298 298 298 298 298 297 296 297 296
290 289 291 289 288 290 293 293 292 290 292 293 293 293 294 296 295 297 301 298 300 298 297 297 295 292 290 290 287 288 287 289 288 287 285 282 283 284 283 279 281 283 285 289 291 292 295 294 295 294 295 295 296 296 296 297 295 295 296 297 297 296 296 297 297 297 297 297 297 297 297 297 296 296 296 296 297 298 298 298 298 298 298 298 297 297 296
294 291 290 295 290 289 291 286 287 288 289 290 292 292 294 295 296 296 301 300 300 296 293 291 291 290 288 287 286 282 285 291 287 285 284 283 287 285 282 281 284 288 290 293 295 295 295 295 295 294 294 295 296 296 297 296 296 297 297 297 297 297 297 297 297 297 297 297 298 293 296 297 297 297 298 298 298 297 297 297 297 298 298 298 298 297 297
289 287 288 291 295 294 294 295 294 293 293 294 294 295 297 295 298 299 302 300 296 292 290 293 291 288 286 283 286 290 290 288 286 286 284 287 289 285 284 288 289 291 293 293 294 295 294 294 295 293 296 296 296 297 297 297 297 297 296 296 297 297 297 297 297 297 297 297 297 297 298 297 298 298 298 297 297 296 295 296 297 298 298 298 298 299 299
Wind_Speed
12 13 13 13 13 14 15 16 15 13 12 10 3 5 5 7 2 7 7 8 7 6 5 5 2 7 2 1 7 1 5 5 1 5 5 7 5 5 4 5 6 7 8 5 6 6 7 8 7 3 4 7 1 1 4 6 5 9 4 10 9 6 6 8 12 6 11 3 2 4 7 5 10 11 9 6 8 8 10 6 3 4 5 7 6 2 4
13 13 12 13 13 14 15 15 15 13 9 8 8 7 6 4 5 5 6 7 6 6 5 3 4 2 1 3 4 4 5 3 5 6 4 5 5 4 7 4 7 9 3 4 8 4 5 6 7 5 8 4 9 4 1 3 2 6 2 1 5 5 9 11 8 8 11 9 7 9 10 11 10 10 10 11 9 8 2 5 7 7 4 11 8 1 2
12 12 12 13 13 14 15 15 14 13 10 9 6 4 3 4 4 4 6 6 5 6 4 6 1 2 4 3 6 6 5 4 7 8 2 2 5 2 5 5 6 4 5 8 7 7 7 6 6 8 5 5 2 6 3 3 2 5 5 4 5 7 4 8 10 11 12 10 10 11 10 13 11 12 14 12 12 12 8 7 6 7 8 9 5 1 5
12 12 11 12 13 14 14 14 13 11 10 6 6 5 4 7 3 5 5 5 5 6 6 4 4 3 2 3 1 4 5 5 4 4 6 2 3 3 6 4 4 8 7 8 8 9 7 6 5 7 2 4 1 5 6 7 7 11 4 4 3 3 5 9 10 9 6 4 6 13 11 10 13 15 9 8 12 13 11 7 6 8 4 6 7 6 10
12 12 12 12 12 14 14 13 13 10 9 6 5 6 5 3 4 5 5 5 5 4 5 4 4 2 1 2 2 4 2 3 6 3 2 6 9 2 5 4 0 4 5 5 8 7 7 7 8 8 7 5 3 4 4 8 12 14 4 8 3 4 6 10 12 12 8 7 6 8 14 10 12 12 13 14 9 8 9 7 7 6 5 3 1 5 5
12 11 12 12 12 14 13 13 13 7 8 7 5 5 6 4 1 1 4 3 3 6 5 6 3 1 5 1 1 4 3 4 3 4 7 2 6 5 5 11 4 4 2 3 4 5 6 5 4 5 7 6 4 4 3 4 6 8 5 6 2 2 3 10 10 13 11 6 7 4 8 12 4 1 5 8 10 12 13 10 4 1 6 1 9 10 6
11 12 12 12 13 13 13 13 12 6 5 5 5 5 6 4 1 1 3 3 3 6 5 1 1 5 1 2 3 2 2 3 3 3 3 5 5 5 0 7 5 2 4 3 3 3 4 2 3 4 5 9 6 4 3 5 6 1 4 6 5 4 4 4 7 10 12 7 5 4 2 9 9 8 10 5 3 2 2 1 3 2 8 11 12 16 12
11 12 12 12 13 13 13 13 11 4 4 6 6 7 5 5 3 6 3 2 2 5 4 3 3 3 3 3 3 1 3 3 2 4 4 2 3 7 2 6 5 2 4 2 2 3 4 4 3 3 7 7 8 1 2 2 5 4 4 2 5 3 1 7 5 4 12 3 4 4 8 14 6 4 3 5 4 5 5 7 8 11 11 11 14 15 10
11 12 12 12 13 13 12 12 12 4 6 5 6 5 5 3 3 3 4 4 3 3 3 4 5 3 6 5 5 4 2 3 4 4 3 4 5 5 3 5 6 6 5 2 2 3 5 4 5 6 6 6 2 5 1 3 2 2 3 3 1 3 2 3 4 5 5 4 3 1 3 6 8 10 11 9 5 2 4 3 5 2 7 11 11 7 4
11 11 12 12 13 13 12 12 11 6 5 5 4 6 1 3 1 5 6 1 2 5 4 4 3 4 4 5 2 3 1 1 2 2 3 2 1 2 5 3 5 5 7 6 3 5 6 7 7 6 6 5 6 5 6 5 4 1 3 2 3 2 2 2 4 8 8 3 2 3 6 6 1 8 9 10 7 5 3 6 7 7 3 3 4 3 9
10 11 12 12 13 12 12 11 10 5 5 4 4 4 2 4 3 5 6 2 2 5 5 3 5 4 1 3 4 3 3 2 1 4 1 5 4 3 3 4 4 5 4 4 5 7 8 7 7 6 7 7 7 4 3 4 3 1 2 3 2 2 4 3 1 2 2 5 3 2 2 7 1 5 8 9 9 12 3 7 10 11 7 4 7 11 13
10 10 11 12 12 12 12 11 10 7 5 6 6 7 7 5 6 5 3 3 3 2 4 1 2 5 6 4 3 3 2 4 3 3 5 2 4 3 3 5 3 3 6 5 6 7 9 8 9 7 9 7 6 5 5 4 3 3 3 1 1 1 3 3 3 1 1 3 4 4 8 2 2 4 9 9 8 9 7 8 10 11 5 12 13 13 12
10 11 11 12 12 12 12 12 10 8 5 6 6 7 4 3 5 5 3 4 3 5 3 5 2 2 1 1 4 4 4 5 4 3 5 5 5 5 3 3 4 4 5 7 7 8 8 8 7 8 9 7 7 7 6 6 5 5 2 1 2 1 3 2 1 1 1 2 5 6 2 2 2 4 9 12 7 12 4 9 11 12 7 12 13 12 13
11 11 12 12 12 12 13 12 10 9 6 6 7 7 6 4 5 5 4 2 2 2 5 3 4 4 2 1 3 6 5 6 6 4 6 5 6 6 4 3 4 5 6 6 7 7 6 5 6 4 5 3 7 8 7 5 5 3 3 3 1 4 2 3 2 4 2 1 2 4 5 4 6 3 7 7 5 8 7 4 5 9 6 8 12 13 13
10 11 11 12 12 13 13 12 11 9 8 6 7 8 6 3 3 4 4 5 1 3 3 1 5 4 0 2 3 5 5 4 4 5 7 3 6 5 6 5 4 5 5 6 6 6 3 2 2 1 5 8 7 4 4 6 6 4 0 1 4 7 3 2 2 3 5 4 6 6 5 4 4 3 6 6 6 6 7 5 2 7 7 7 10 12 12
10 10 11 12 12 13 13 13 11 9 7 7 7 7 3 2 3 4 6 5 1 3 3 5 3 2 3 1 2 5 3 2 3 3 4 6 4 5 4 3 3 4 6 7 6 5 5 4 5 6 3 1 5 2 3 4 3 7 5 2 4 2 4 5 2 4 3 5 6 4 3 5 6 9 9 7 6 6 6 4 2 4 5 6 9 11 11
10 10 11 12 13 13 14 13 11 8 7 5 6 5 1 2 3 3 5 4 2 3 4 4 3 2 4 3 4 1 3 2 4 3 1 2 1 2 2 1 1 5 6 6 5 5 5 3 4 1 2 3 4 3 2 4 5 3 6 7 4 2 2 1 7 7 7 5 2 4 5 5 9 10 10 7 5 7 4 3 4 5 6 7 9 11 12
10 10 11 12 12 13 13 13 12 10 9 5 5 5 1 1 2 5 5 1 3 4 5 3 4 4 2 6 3 3 4 4 3 2 3 3 2 1 2 3 5 7 5 5 4 5 3 3 2 0 2 4 3 4 1 2 5 3 1 1 3 2 2 4 2 5 6 11 7 7 6 4 12 12 10 6 4 1 1 1 4 3 6 8 9 9 7
11 11 11 12 12 13 13 12 12 10 9 7 6 7 2 0 1 2 7 3 3 3 5 4 4 8 5 1 3 2 5 4 4 4 1 3 3 5 5 3 5 1 7 4 2 3 3 2 4 2 3 3 3 2 3 3 3 2 6 2 5 4 3 1 1 5 2 2 7 8 6 5 13 14 7 6 4 2 2 2 6 1 9 8 7 9 9
11 11 12 13 13 13 13 12 12 10 9 6 4 3 5 1 1 3 6 3 5 7 6 4 3 7 5 7 5 4 2 2 6 5 3 3 3 2 3 3 4 4 1 0 3 3 3 1 3 3 4 4 5 3 6 5 6 6 5 4 4 4 4 2 4 3 2 2 7 5 4 7 17 16 1 12 3 4 1 5 2 7 8 8 8 9 9
12 12 12 13 13 13 13 13 13 12 11 8 4 4 5 1 1 4 6 3 6 6 5 3 6 9 8 8 7 7 7 7 7 7 6 5 3 5 2 2 3 2 2 2 4 2 1 2 1 3 2 4 5 2 5 5 9 10 7 7 8 5 3 2 5 5 3 7 7 4 4 7 11 11 6 6 5 3 3 2 7 7 6 9 9 10 11
13 12 13 13 13 14 14 14 14 14 12 9 5 6 5 3 1 2 1 3 4 4 7 7 8 8 8 7 6 6 8 8 8 7 6 5 3 5 3 2 4 4 4 5 2 2 1 4 3 4 5 5 1 3 1 2 6 7 11 4 6 9 9 6 8 8 6 6 6 6 6 6 7 9 8 8 8 8 8 8 8 8 7 10 11 13 12
13 13 14 14 14 15 14 14 14 14 14 12 8 3 7 6 5 4 5 9 8 7 6 6 6 7 7 8 6 6 6 5 6 6 7 7 2 5 6 5 5 4 4 5 3 5 5 4 4 5 8 6 6 6 6 6 6 8 9 10 9 9 14 13 14 14 16 14 10 7 8 9 10 10 9 9 10 10 10 11 10 9 7 9 12 12 14
14 14 14 14 15 15 15 14 15 14 14 14 12 4 6 7 8 7 7 7 4 6 5 5 4 4 6 7 6 6 6 6 7 4 2 3 5 2 6 6 5 1 5 4 2 4 4 3 7 6 7 6 3 4 6 8 8 10 10 9 8 7 4 6 6 7 5 8 10 12 11 10 10 10 12 12 11 11 11 13 12 11 11 13 13 13 12
14 14 14 15 15 15 15 15 15 15 14 14 11 6 5 6 1 2 6 4 4 2 5 4 5 5 7 6 5 6 6 4 2 3 3 2 6 7 7 5 5 6 6 5 4 3 3 5 5 5 6 3 3 7 6 8 8 5 9 8 7 11 12 15 15 15 12 10 12 13 15 15 14 10 9 12 13 14 14 12 12 11 11 13 12 11 11
13 14 14 15 15 15 15 15 15 14 13 16 14 4 6 4 2 4 2 3 5 5 5 6 7 5 5 6 8 6 4 4 5 5 6 8 8 7 5 2 4 2 3 4 5 4 4 5 5 5 7 7 6 8 9 10 10 8 9 7 5 7 5 8 10 12 13 15 14 15 16 17 17 17 15 11 12 13 14 14 14 13 14 14 14 13 12
13 14 14 15 14 15 14 15 14 14 15 14 7 4 4 4 3 5 5 3 5 4 4 6 6 7 6 9 5 4 5 6 4 5 6 6 6 4 3 4 5 3 5 7 7 5 5 7 6 9 8 7 5 10 9 9 10 9 10 9 8 10 12 12 10 10 8 6 7 5 7 9 12 15 15 16 15 15 15 15 14 14 14 13 14 12 11
13 14 14 14 15 14 14 14 13 14 14 14 7 4 3 2 2 4 4 6 6 3 5 6 6 7 5 10 8 8 7 7 6 6 7 7 7 6 5 5 5 5 5 5 6 6 6 8 9 4 4 7 6 9 10 11 10 11 10 8 6 8 6 4 7 7 10 11 13 13 12 13 11 12 13 14 13 13 14 13 13 12 12 13 13 13 11
12 14 14 14 14 14 14 14 12 13 13 13 3 4 4 3 2 3 5 4 6 4 6 6 6 4 3 6 4 9 9 8 8 8 8 9 9 8 8 8 8 7 8 7 6 6 6 7 4 5 4 4 3 8 7 10 10 11 10 11 12 13 13 16 15 15 14 12 11 11 10 11 10 11 12 12 11 13 15 13 12 12 12 11 10 9 9
12 13 14 14 14 14 14 14 13 12 11 5 4 5 4 5 2 3 5 5 6 2 4 4 5 4 2 4 7 7 9 9 10 10 10 9 8 8 8 8 8 8 8 6 6 8 6 5 4 5 4 4 1 6 7 9 10 11 11 12 12 13 14 13 12 12 12 12 13 13 13 14 12 12 12 12 13 12 12 12 11 11 10 9 9 8 7
12 13 14 14 14 14 13 13 13 12 9 4 5 3 3 4 4 2 6 6 5 4 3 3 6 4 5 2 4 7 9 9 8 9 9 8 8 8 8 7 8 6 6 5 5 5 4 6 4 5 7 9 4 6 8 8 10 10 11 11 12 13 13 13 12 12 12 12 11 12 12 12 12 12 12 12 12 12 12 12 12 11 11 10 8 8 6
12 13 13 14 14 14 13 12 12 13 5 2 3 3 3 3 4 6 8 6 6 2 5 6 4 3 3 3 4 2 7 6 8 5 6 5 8 7 9 8 7 8 6 6 5 5 6 5 6 7 8 6 5 7 8 9 10 10 11 12 11 12 11 12 12 12 11 10 11 11 11 11 9 10 10 11 11 11 11 10 9 9 9 8 8 7 7
12 12 13 14 14 11 11 11 11 10 5 5 7 10 7 4 5 6 6 5 5 3 3 2 3 3 3 7 5 4 2 2 6 4 7 3 7 5 7 6 7 7 4 4 5 5 5 4 4 7 8 6 7 6 10 9 10 11 12 11 11 11 12 11 10 9 9 8 7 9 9 10 10 10 10 10 10 9 9 9 8 7 8 8 7 7 6
12 13 14 13 13 12 11 11 9 6 3 4 4 4 5 10 5 5 7 5 1 2 2 3 3 3 5 4 5 3 6 1 6 4 5 3 2 5 4 5 5 4 3 5 4 4 4 5 7 8 6 7 6 8 9 10 11 11 11 11 10 10 9 9 8 9 10 10 10 10 10 10 9 8 9 8 8 7 7 6 5 6 6 6 6 5 5
12 13 14 14 14 12 13 10 4 5 4 4 5 3 5 9 7 8 6 3 2 1 1 2 2 6 5 4 3 5 4 2 4 4 4 2 4 5 3 3 1 2 3 1 4 4 3 5 7 6 8 7 5 7 8 11 12 11 10 11 10 9 9 9 9 8 8 8 9 9 9 8 8 8 7 6 6 5 5 5 4 4 4 5 4 4 2
13 14 14 14 14 10 5 6 5 3 5 3 5 4 5 8 7 3 3 2 5 1 3 2 3 4 3 5 5 3 3 7 5 5 5 2 4 3 5 4 6 4 2 1 5 4 5 1 2 6 4 5 6 6 9 10 11 10 9 9 7 7 8 9 9 8 8 8 8 7 7 7 7 6 5 4 4 4 4 4 4 3 3 3 4 3 1
14 14 15 13 7 5 3 1 2 5 4 4 4 8 9 7 2 3 4 5 3 4 2 3 3 3 1 5 3 2 5 4 3 4 4 3 3 1 3 3 5 2 3 4 3 4 2 2 4 6 5 7 7 8 9 8 9 9 9 7 6 6 7 7 8 8 9 7 7 5 5 6 5 5 5 4 3 2 2 3 3 3 2 2 2 1 2
13 13 6 5 5 2 2 2 2 3 5 4 4 2 4 4 4 3 2 1 2 4 0 4 2 5 3 6 5 4 4 4 3 4 3 3 3 3 2 2 3 2 5 3 4 3 3 3 5 6 6 7 8 8 7 7 7 7 7 7 6 5 7 7 6 6 7 7 5 5 4 5 4 4 3 4 2 3 3 3 2 2 2 2 1 2 0
10 5 5 4 3 2 1 5 4 2 4 3 3 2 3 3 3 2 1 1 2 2 0 2 5 4 4 5 6 1 3 2 3 4 4 1 1 3 2 3 1 1 5 3 4 6 3 4 5 5 7 6 7 7 6 7 5 5 4 4 5 5 5 6 5 4 3 4 5 4 3 3 4 3 2 3 3 3 2 1 2 2 3 1 1 0 3
5 5 2 3 1 5 5 5 2 3 4 3 2 1 3 2 3 2 1 3 2 2 2 3 2 2 2 5 6 5 1 4 2 5 4 4 3 1 2 1 2 1 4 3 4 4 2 5 4 5 6 5 7 7 7 6 7 5 5 5 4 4 4 6 6 3 4 6 5 5 4 4 3 3 3 3 2 2 2 1 2 2 1 4 5 2 1
6 4 3 2 6 5 6 6 5 3 3 2 2 1 1 3 2 2 2 3 2 3 3 4 5 5 1 2 4 5 4 2 4 6 3 3 1 2 3 3 0 1 2 4 3 2 2 3 3 4 6 6 8 7 7 6 6 6 6 6 6 6 6 6 6 4 5 5 5 4 4 4 4 3 4 3 3 3 4 3 2 3 2 3 2 1 3
3 3 4 3 5 6 6 5 3 2 0 1 2 2 2 2 2 3 2 3 4 3 5 4 5 6 5 2 6 3 3 4 1 1 2 3 0 1 3 2 1 2 3 3 3 2 2 3 5 7 7 9 8 8 7 7 6 7 7 7 7 6 7 7 7 5 4 5 4 4 4 4 4 3 4 4 4 4 3 2 2 1 2 3 2 2 1
7 6 6 3 4 3 2 3 1 1 1 0 1 2 1 2 3 4 4 1 3 4 4 2 6 6 6 2 6 4 3 1 2 1 1 3 1 1 2 2 1 2 3 3 3 3 3 3 2 8 8 10 8 7 8 8 8 7 7 6 5 5 6 6 5 5 4 5 3 4 4 4 3 4 1 3 4 4 2 3 3 2 1 0 3 2 2
3 4 4 3 3 2 1 2 1 0 1 2 3 4 5 4 5 3 3 5 4 3 7 6 7 7 5 1 1 4 3 3 1 1 2 2 2 2 1 3 2 4 2 3 2 4 3 3 2 10 10 10 7 9 8 8 8 7 7 6 6 4 5 5 4 4 3 3 2 2 0 3 3 3 1 2 2 2 2 3 4 6 4 1 3 2 3
5 3 3 2 1 2 1 1 2 2 3 4 3 4 4 6 4 4 4 5 6 7 8 6 7 6 5 4 2 3 2 3 1 1 2 2 2 2 2 2 3 2 3 4 3 3 3 3 5 12 12 11 10 10 9 8 8 7 7 6 5 5 4 5 5 5 4 3 4 3 3 3 1 3 1 2 1 3 1 3 2 3 1 1 1 1 4
3 4 4 3 2 3 1 2 2 3 2 4 4 4 6 6 6 6 7 6 6 9 8 8 7 6 5 4 2 3 2 2 3 2 2 2 3 2 2 2 1 2 2 3 4 4 5 4 6 8 11 12 10 10 9 8 7 7 6 6 4 3 4 4 4 4 3 3 3 3 2 2 2 2 2 2 1 3 2 1 1 2 2 2 1 2 5
3 2 2 1 2 2 2 3 4 3 3 5 5 4 3 3 3 6 5 5 8 8 8 6 5 6 5 4 2 2 2 2 2 2 2 2 2 2 1 1 2 2 4 4 4 3 3 5 7 9 11 11 11 10 9 8 7 6 6 5 4 3 2 3 4 4 3 2 2 3 2 3 3 3 1 1 2 2 1 1 1 1 3 3 2 3 2
3 1 2 2 3 3 5 3 2 2 1 2 3 3 3 4 5 6 5 6 7 8 9 8 8 5 3 2 4 3 3 2 3 2 0 2 2 1 2 1 2 2 2 3 4 3 2 6 8 8 10 11 11 10 9 7 6 6 6 5 5 4 4 4 4 4 3 4 3 3 3 2 2 2 2 3 3 3 3 4 4 4 4 3 4 4 4
1 3 2 1 1 3 4 3 4 5 5 3 3 4 5 6 6 7 5 6 8 8 7 5 4 3 3 3 2 4 3 3 3 3 2 2 2 3 3 3 4 4 3 3 4 4 3 7 10 12 13 12 10 8 8 7 7 6 6 5 4 4 4 3 4 3 3 2 2 3 3 2 2 2 3 3 4 4 3 3 4 4 4 4 5 5 5
3 1 1 2 2 2 3 3 5 3 5 4 5 5 6 5 7 7 6 7 8 8 7 5 3 3 3 2 3 2 2 3 2 2 3 3 3 3 3 3 3 3 4 4 2 3 8 8 10 11 12 11 10 9 9 7 6 6 5 5 5 5 5 5 4 4 4 4 3 3 3 2 4 4 4 4 3 3 2 4 4 5 5 6 6 6 6
1 2 3 1 2 3 4 4 4 3 4 6 6 6 6 6 8 8 7 7 8 5 3 4 3 2 3 2 2 3 1 2 2 3 3 4 2 2 3 3 4 4 4 3 5 6 7 8 8 11 11 10 10 9 8 7 6 6 5 5 4 4 5 5 4 3 2 2 3 1 2 4 4 3 2 2 4 4 4 4 4 5 5 5 6 7 7
2 3 3 3 2 2 5 0 1 3 5 6 6 6 5 7 8 8 6 8 8 6 6 4 3 3 2 4 4 2 2 2 3 3 4 2 1 2 3 2 4 3 6 5 6 7 7 7 9 7 9 9 9 8 7 7 7 5 5 5 5 5 5 5 5 4 3 3 3 3 4 3 2 3 3 4 4 4 5 5 4 5 5 5 5 6 6
Wind_Direction
321 320 318 318 322 325 326 326 327 327 326 311 337 316 225 204 117 89 163 181 205 228 254 237 217 233 42 23 234 94 219 278 91 263 203 239 204 266 249 271 267 242 261 271 265 269 271 264 270 306 264 126 82 248 323 328 268 259 298 234 215 205 229 231 234 239 258 202 143 202 221 245 237 229 247 224 250 259 249 266 322 283 343 305 277 184 111
319 316 317 318 323 325 324 324 325 322 325 314 299 268 241 172 131 156 169 193 221 252 244 205 215 155 108 267 291 123 309 259 204 237 155 259 185 203 235 219 222 265 181 273 266 288 280 267 257 246 240 115 295 39 271 295 271 322 76 322 18 214 206 235 229 217 212 185 215 218 207 226 232 229 221 223 208 209 197 327 286 261 178 230 268 181 176
318 315 316 319 322 321 321 323 320 318 315 296 266 261 246 148 157 148 162 189 226 248 294 296 263 154 223 244 227 181 193 168 299 316 261 132 247 269 259 229 299 261 270 269 267 268 259 266 265 305 303 100 236 76 6 73 332 50 356 3 260 254 251 227 230 216 217 199 205 212 199 208 219 227 233 226 230 221 187 213 225 246 238 263 259 75 101
317 316 318 320 321 320 321 324 319 319 323 295 220 254 246 181 167 157 161 202 208 250 269 276 298 190 182 239 236 249 222 141 210 256 234 290 343 260 301 311 225 252 256 252 249 248 224 245 257 243 230 328 77 37 72 45 28 8 11 342 314 263 285 262 254 256 259 278 328 318 286 204 216 212 196 211 231 240 242 228 229 242 292 243 356 148 171
319 320 319 319 321 320 324 326 321 324 326 324 261 264 255 268 226 169 177 166 214 251 224 211 232 254 183 234 155 230 208 253 147 199 281 167 273 183 256 295 39 293 286 290 280 283 278 264 257 256 267 130 6 304 6 55 33 337 331 30 337 279 256 251 275 279 274 290 291 298 307 280 234 223 202 215 226 252 243 225 236 269 176 183 109 80 158
316 318 318 320 322 324 326 326 321 331 319 320 271 246 207 234 129 293 19 283 159 191 205 201 154 49 227 96 272 216 222 220 182 178 240 189 196 250 178 249 200 224 274 274 276 280 266 252 254 283 256 260 107 255 111 43 29 342 40 19 13 271 258 269 274 259 248 235 244 327 320 309 319 349 275 214 194 214 228 232 249 47 267 150 147 144 146
317 316 319 321 323 324 326 324 324 320 315 279 254 253 200 285 160 117 152 240 99 18 35 39 190 168 234 151 183 226 207 205 185 235 238 204 253 268 119 272 266 317 302 305 277 13 279 241 22 308 342 334 304 312 349 22 5 301 18 43 33 308 239 290 272 277 293 240 219 180 15 285 182 204 200 220 246 241 281 166 96 54 84 110 134 112 99
316 315 318 321 322 325 326 326 326 308 270 251 248 251 249 188 241 154 190 304 162 171 167 183 240 169 223 238 124 232 185 230 299 229 174 273 241 249 258 264 301 315 291 288 303 33 352 355 285 304 311 278 291 106 149 278 105 44 50 18 21 315 299 8 349 286 233 271 266 165 160 241 140 99 86 98 104 78 48 75 66 85 95 98 112 110 101
314 314 315 319 321 323 324 323 327 293 274 235 231 238 238 302 327 316 191 179 114 141 214 195 207 183 188 232 130 239 259 132 245 219 254 204 210 263 246 276 309 278 267 235 219 21 5 319 296 294 280 287 295 308 65 339 318 75 117 149 188 180 311 352 281 281 263 208 202 140 219 145 85 54 42 25 347 61 34 72 41 87 139 139 127 124 122
312 312 315 316 318 321 322 324 322 325 254 280 288 239 236 273 253 274 280 180 144 240 149 227 209 211 77 50 99 290 147 342 190 281 259 259 310 353 321 316 297 272 255 262 324 343 317 318 313 302 296 272 281 254 275 294 334 287 95 91 197 194 195 220 246 253 247 252 223 64 45 10 157 39 16 357 0 37 116 79 61 43 126 146 177 115 126
312 312 312 314 319 322 323 321 322 295 261 268 285 262 225 252 213 178 245 173 161 236 181 183 233 57 80 144 248 160 286 290 294 254 197 244 211 110 266 294 306 301 351 358 337 305 299 293 294 270 256 268 259 227 211 235 229 303 137 155 132 210 246 240 110 260 221 169 111 91 210 217 98 20 349 355 2 349 39 54 32 35 48 79 81 120 127
312 311 312 317 319 320 323 322 318 315 283 274 286 283 290 316 280 249 237 194 149 276 252 75 9 106 237 128 266 291 235 250 263 342 290 304 289 298 316 262 267 259 54 318 300 291 274 258 250 253 258 245 243 237 225 197 135 181 138 132 47 238 230 237 142 229 237 128 135 162 221 207 55 12 16 351 338 357 63 68 42 20 83 111 109 118 126
315 316 317 317 318 321 324 323 319 316 281 274 255 269 306 328 285 270 257 278 143 190 230 129 148 133 118 150 243 248 264 288 275 247 272 279 284 279 260 333 278 334 351 314 302 277 265 255 249 243 225 211 212 182 171 162 176 162 140 89 227 231 225 232 139 111 43 184 171 193 118 65 120 74 15 353 341 4 354 87 38 26 40 100 97 89 97
319 317 316 317 321 322 324 323 323 311 289 271 258 254 279 278 255 243 238 243 141 98 16 85 179 167 207 224 286 280 277 255 258 260 265 231 257 265 276 259 331 340 290 301 273 263 263 254 239 202 255 271 233 192 154 101 112 167 156 133 19 284 310 287 217 174 214 139 89 82 130 126 40 23 21 9 4 345 356 26 60 20 28 103 112 111 108
319 317 317 321 324 322 322 325 323 315 298 264 257 269 262 235 276 275 312 289 227 119 232 290 72 88 196 298 288 274 230 203 225 224 217 191 248 268 279 293 309 301 301 274 263 234 254 329 252 252 231 214 202 212 156 176 126 75 181 195 27 12 295 43 332 194 223 157 136 140 185 134 67 44 353 1 341 324 310 305 95 43 49 90 116 118 123
323 323 325 325 325 323 325 326 324 319 306 277 250 264 274 3 314 279 272 286 133 194 88 43 15 316 254 147 323 297 357 306 266 274 209 193 233 237 181 270 266 296 270 246 258 256 119 199 232 235 235 260 328 339 234 95 133 110 90 78 95 37 274 283 273 295 233 201 181 167 136 67 32 9 355 355 333 331 313 283 120 50 46 94 122 122 125
330 330 328 327 326 327 327 326 324 319 314 286 276 264 143 65 287 290 271 230 330 59 70 76 52 257 251 162 200 229 349 335 346 299 274 135 103 293 169 225 206 235 236 260 236 251 226 237 264 332 22 25 281 194 229 231 112 84 100 103 60 37 303 245 239 226 232 243 196 96 52 67 5 352 349 345 348 296 314 210 115 43 71 100 118 122 126
339 335 333 330 331 331 330 327 326 327 320 300 266 289 77 98 278 290 258 241 121 91 70 42 305 249 36 31 17 27 263 247 221 188 284 56 229 203 53 263 227 182 266 256 256 251 247 270 75 172 158 264 170 236 116 35 83 42 46 3 112 110 248 288 329 253 101 96 100 104 98 59 356 349 337 358 349 329 254 8 55 50 105 117 116 115 111
342 338 338 337 335 334 331 328 326 323 320 314 282 261 146 350 278 266 284 142 142 105 76 77 48 48 35 346 32 343 46 5 327 294 308 210 67 28 286 49 325 201 191 254 273 233 250 221 202 209 126 155 251 45 51 72 79 31 9 98 90 43 341 152 326 358 336 159 97 89 77 37 350 342 343 2 277 14 47 3 304 269 112 97 86 82 77
344 344 343 342 337 333 335 331 330 329 321 320 279 283 76 338 280 283 305 112 108 113 119 77 51 82 38 16 32 12 352 200 348 331 24 12 55 271 248 213 167 258 211 137 241 28 310 231 70 69 94 85 57 37 96 76 44 59 90 46 44 22 319 66 34 346 317 62 113 117 78 29 3 334 354 16 28 21 272 310 355 128 118 103 85 84 91
349 349 348 345 341 339 340 339 338 338 333 334 284 265 128 114 278 254 267 124 121 111 102 75 72 58 45 57 30 17 10 13 356 345 2 19 15 278 285 25 7 324 343 58 293 107 249 80 103 79 35 67 114 241 97 102 85 54 60 88 47 2 279 62 66 359 23 44 50 45 15 346 358 10 46 18 32 34 32 334 60 35 74 92 91 93 101
352 352 350 348 346 347 345 346 345 343 335 331 326 274 123 116 103 348 8 88 100 90 79 71 71 70 62 59 46 27 18 11 10 351 331 336 38 19 55 26 34 346 20 337 282 130 117 97 76 110 109 104 187 89 302 101 75 66 41 33 75 19 56 39 73 26 41 66 69 48 48 32 28 34 49 51 43 62 62 60 46 48 50 85 98 105 107
348 349 350 350 350 352 351 350 350 345 342 328 306 234 118 144 127 126 114 101 102 108 129 125 121 114 108 74 57 44 36 23 359 2 356 329 336 49 32 41 60 11 15 95 273 333 53 56 105 113 97 79 91 95 79 65 76 64 71 58 101 100 97 97 87 87 85 68 63 72 65 57 52 51 52 58 60 57 65 64 63 39 35 88 98 105 107
349 349 352 352 353 352 353 352 350 347 341 332 314 140 130 125 140 144 127 127 127 118 98 79 94 58 43 56 59 51 41 37 17 355 332 327 340 116 104 43 345 205 87 40 319 8 57 81 71 76 74 60 96 89 92 91 80 94 92 93 83 88 114 97 99 140 105 59 49 61 65 69 72 70 65 64 64 70 73 72 64 57 50 80 95 107 109
348 349 352 353 353 353 354 353 352 349 340 335 330 85 102 139 6 343 141 137 149 129 102 91 64 59 72 47 43 46 36 353 1 359 352 264 334 22 53 31 345 9 51 360 313 76 81 86 94 82 77 21 306 91 83 104 105 86 95 93 104 93 87 80 76 81 85 99 88 79 72 68 68 70 73 73 75 76 75 78 76 66 57 57 55 59 80
348 349 352 353 353 353 353 352 352 345 338 332 316 176 147 99 30 306 242 77 91 121 118 105 98 79 56 61 48 39 355 17 54 53 49 54 54 44 78 102 100 329 359 26 49 72 77 74 62 64 69 64 35 81 69 61 85 77 80 73 68 98 110 80 95 94 100 110 106 97 84 72 67 69 75 84 88 88 86 85 84 79 73 63 58 52 50
347 349 350 352 352 352 351 350 348 346 339 331 324 93 100 106 12 346 2 1 127 95 117 107 113 103 86 70 49 65 53 68 68 85 76 67 72 78 61 99 102 95 72 68 57 66 65 68 68 74 61 69 72 84 90 84 77 80 79 79 98 106 99 115 114 108 114 130 140 116 88 84 76 75 83 87 91 94 92 88 84 81 83 82 80 75 68
347 348 348 350 350 350 349 346 345 340 338 323 297 78 86 87 53 3 332 348 316 125 127 125 117 103 109 66 51 52 52 59 73 86 84 68 60 51 62 51 54 84 87 102 103 91 88 87 81 83 84 84 89 89 91 93 87 71 65 61 46 75 89 113 94 92 90 87 84 85 90 92 94 97 95 98 101 97 93 92 96 96 95 96 98 97 95
347 346 345 346 346 347 345 340 337 334 332 315 215 148 127 88 87 71 6 345 297 130 112 106 136 153 74 50 50 76 66 72 75 80 79 82 81 75 64 66 77 71 74 72 73 72 65 57 43 60 64 2 2 95 99 82 73 71 70 77 77 79 83 86 94 98 96 96 95 97 100 105 108 107 99 92 94 99 102 105 107 107 107 106 100 96 96
344 343 342 343 343 342 341 335 331 328 321 295 197 173 145 135 102 25 2 326 303 135 129 130 103 89 109 60 72 78 83 72 72 72 77 79 74 75 79 78 67 66 69 67 71 75 68 82 71 87 75 276 140 85 89 89 86 84 84 81 79 81 78 81 85 89 95 98 101 100 100 105 114 122 118 112 99 92 95 103 105 107 111 112 110 111 116
341 340 339 339 339 338 335 332 325 320 308 267 214 164 178 159 138 74 1 317 322 299 116 111 98 112 96 61 41 77 88 80 70 73 74 70 73 76 73 78 87 85 81 73 75 82 109 94 106 83 80 10 13 102 96 99 95 89 81 82 87 90 91 91 91 90 94 94 96 97 100 105 109 105 98 100 105 111 112 111 113 111 117 110 108 107 107
337 335 335 335 334 334 331 327 328 310 281 312 327 352 15 36 44 338 329 309 305 224 119 126 145 132 91 101 87 39 89 102 103 89 82 85 83 76 73 63 66 55 63 82 78 85 65 62 59 69 70 47 58 88 93 92 95 93 98 95 92 92 92 95 95 95 95 100 105 105 94 88 84 85 94 101 104 105 103 103 106 141 168 106 117 118 117
333 331 330 331 329 325 326 320 324 345 78 87 123 138 102 29 330 308 316 314 260 124 169 151 111 139 142 109 130 89 3 174 110 116 84 49 99 96 93 99 97 94 97 95 85 89 98 94 84 79 62 76 94 91 94 94 97 105 104 107 102 95 95 94 93 91 93 91 86 91 96 97 95 96 102 103 102 105 110 113 118 114 114 121 110 106 101
327 328 326 324 322 320 313 311 299 310 254 187 152 86 55 12 335 14 330 283 3 108 243 119 149 141 110 197 170 112 283 141 115 129 100 43 47 117 108 104 74 70 37 84 109 109 94 86 85 88 84 64 81 101 97 104 110 108 108 101 102 105 104 101 95 91 89 84 83 90 88 89 93 95 89 80 77 74 89 104 105 97 84 86 78 74 106
323 322 322 316 315 315 305 289 281 228 158 119 86 71 21 352 334 292 301 293 187 125 89 166 139 132 158 171 132 115 297 223 108 92 111 78 291 115 134 115 136 102 74 74 86 69 90 83 97 89 83 106 101 93 107 117 115 115 112 113 109 110 108 95 86 84 89 97 99 100 109 112 107 99 100 103 96 91 81 69 71 97 93 70 81 101 75
318 316 312 311 305 291 264 225 240 180 143 112 96 55 3 313 298 289 291 260 304 126 160 154 184 146 150 142 145 132 262 85 94 97 86 117 89 72 99 100 97 70 253 83 99 114 98 263 260 102 121 96 87 103 111 115 118 116 111 104 102 91 94 97 104 100 94 91 96 108 113 111 100 95 88 85 95 79 64 73 67 28 58 105 89 76 43
313 313 303 287 266 201 207 129 80 1 42 32 354 330 298 285 221 233 218 229 177 293 240 172 202 125 76 98 97 136 236 133 177 125 166 146 90 102 119 124 91 120 107 97 96 95 66 325 91 103 96 102 102 106 111 117 118 121 117 115 117 113 110 111 106 112 114 107 108 115 106 100 97 96 88 83 90 89 109 67 59 39 46 47 99 112 73
314 305 271 204 199 156 125 141 87 31 326 290 281 208 165 228 163 177 182 206 42 291 83 278 99 118 143 147 124 126 254 123 236 119 105 113 131 85 90 90 96 233 108 93 83 5 90 94 90 92 90 91 108 112 115 114 113 116 128 126 119 108 117 116 127 117 116 127 117 117 121 116 106 102 108 105 105 94 50 36 43 43 53 48 15 49 125
281 240 227 223 205 139 78 95 64 12 292 176 252 204 157 209 151 176 166 105 180 188 219 264 118 158 128 107 112 107 333 146 151 151 152 101 274 134 234 138 160 210 110 139 121 264 109 100 117 122 113 122 121 109 106 110 116 109 108 107 119 129 140 135 122 125 136 96 98 84 68 100 116 106 99 106 85 62 51 73 61 39 61 284 81 341 1
205 206 190 179 77 89 98 109 144 212 210 181 184 192 150 240 160 180 199 182 186 109 210 128 96 114 50 135 146 133 45 310 188 168 123 128 321 161 174 122 112 183 143 167 120 236 158 132 132 132 129 138 119 146 135 132 121 124 118 127 124 127 133 132 123 125 118 105 109 111 102 85 75 86 85 85 85 97 104 46 39 23 28 51 27 304 255
211 196 187 108 105 116 122 149 177 212 197 168 145 212 137 186 230 103 185 194 183 136 284 119 156 150 122 97 152 143 135 289 19 57 114 107 64 295 134 117 181 192 154 118 134 220 145 141 161 144 132 135 141 139 121 117 110 116 116 122 132 142 146 138 137 128 123 120 121 100 81 80 92 80 68 43 42 37 30 47 70 61 34 97 129 355 29
7 331 8 62 98 113 143 160 193 138 357 156 162 162 182 166 157 214 211 205 156 154 165 158 162 163 166 223 100 113 116 327 344 138 130 131 182 296 111 131 193 173 131 90 158 185 143 168 186 127 128 138 141 151 135 117 118 117 117 118 122 131 139 142 136 131 131 126 116 103 97 93 80 72 56 43 40 39 70 100 92 131 93 60 335 88 241
271 254 269 163 142 162 187 146 140 199 146 224 183 150 178 192 194 192 180 277 82 179 133 291 75 78 81 91 93 15 64 348 251 189 121 106 168 245 146 132 196 164 119 142 209 145 163 173 200 124 146 146 165 147 132 134 128 124 118 128 125 129 135 139 143 144 140 126 122 124 122 116 81 61 48 126 126 118 121 55 23 58 124 181 70 47 83
215 193 186 148 144 135 209 138 196 78 293 184 165 166 187 196 182 198 198 172 175 172 145 172 159 190 144 260 114 129 137 156 277 69 87 127 177 113 118 174 137 82 136 186 189 175 168 170 182 133 152 145 161 147 139 140 136 134 134 130 135 154 138 130 132 138 129 102 102 89 54 93 129 132 123 50 354 68 58 52 54 33 29 82 161 174 101
156 180 149 144 150 163 155 60 228 190 199 198 213 192 174 198 181 195 194 123 191 148 162 166 166 174 130 113 116 128 251 127 159 199 128 182 143 149 185 130 116 179 190 173 187 168 136 159 122 136 149 157 162 151 149 146 140 143 133 137 135 133 144 155 159 152 154 165 148 163 177 145 171 120 147 114 73 353 360 121 146 199 160 258 118 230 103
196 159 148 124 10 283 209 169 165 209 219 165 207 202 186 199 176 199 98 151 163 142 161 164 173 136 140 178 254 131 166 150 151 111 150 153 141 125 47 74 200 177 191 183 189 175 175 166 156 158 157 160 158 153 154 152 148 141 154 146 138 153 149 165 165 169 161 172 160 194 194 165 198 200 161 184 173 172 190 105 233 271 176 215 159 221 148
175 186 197 147 142 184 226 179 194 202 175 187 205 209 220 124 130 129 141 198 141 160 144 176 134 146 153 152 133 130 168 115 118 133 231 135 118 93 252 189 190 176 185 189 176 180 186 165 157 160 159 153 152 153 159 156 152 161 155 135 161 152 154 172 168 194 156 189 173 214 224 204 219 203 229 254 203 211 207 229 212 234 245 227 188 236 204
166 200 203 164 192 179 194 214 183 128 267 199 134 83 95 117 132 129 153 178 142 156 165 163 136 149 140 135 242 141 119 106 124 138 15 103 131 151 146 184 197 200 188 190 186 218 163 131 150 154 151 150 155 160 160 159 165 164 145 159 158 155 166 166 170 168 150 189 186 211 208 208 220 245 218 232 262 256 224 225 212 213 229 231 237 238 253
257 176 192 194 188 164 209 175 194 186 159 152 163 180 167 188 150 127 159 146 147 160 143 162 143 192 137 194 154 105 142 136 162 138 156 171 153 162 177 187 184 188 187 223 165 200 145 121 132 144 148 159 162 160 161 169 166 159 165 162 168 160 164 160 154 147 176 217 198 205 209 187 246 238 242 245 245 250 242 243 239 237 246 251 234 238 239
194 158 313 192 187 209 160 169 226 168 145 158 169 173 182 168 138 134 149 162 156 149 176 144 183 193 126 192 154 163 169 199 115 148 186 177 172 190 189 175 173 208 178 232 127 126 105 127 140 149 156 166 160 162 172 167 162 167 168 169 168 163 173 161 172 163 209 182 192 195 209 189 222 232 232 242 265 303 266 240 241 246 234 231 246 240 245
279 240 213 252 238 166 167 189 201 174 158 172 179 161 184 160 145 149 185 155 156 161 162 159 183 132 163 189 144 173 210 98 154 185 186 185 179 180 172 177 202 206 147 154 127 150 142 145 151 157 159 163 161 169 170 152 174 188 170 181 174 178 168 176 188 170 180 187 187 117 254 242 237 248 269 277 258 246 239 240 239 238 246 249 245 252 254
186 203 202 183 259 173 191 263 241 205 164 157 168 152 178 148 148 140 167 166 154 173 181 151 160 160 145 176 207 144 112 208 211 169 195 147 184 159 202 195 153 124 133 153 131 125 132 142 142 140 152 156 166 172 166 158 184 179 174 186 186 186 184 185 195 195 194 184 177 211 248 262 301 294 277 277 268 254 261 269 258 261 261 258 252 252 249